This demonstration page uses our WeatherBlox Daily Observations layout. Learn more.

Left ArrowRight Arrow

39.95238, -75.16362

Hourly Observations for January 5, 2022

Temp ( °F °C ) Dew Point ( °F °C ) Humidity (%) Winds ( mph kmh ) Pressure ( in mb ) Visibility ( mi km ) Precip ( " mm )
12:54 am 00:54 Mostly Cloudy 28 -2.2 21 -6.1 75 75 S 5 7 30.27 1025 10 16 0.00 0.00
1:54 am 01:54 Cloudy 28 -2.2 22 -5.6 78 78 Calm 30.25 1024 10 16 0.00 0.00
2:54 am 02:54 Cloudy 29 -1.7 23 -5 78 78 SSE 3 6 30.23 1024 10 16 0.00 0.00
3:54 am 03:54 Cloudy 29 -1.7 23 -5 78 78 SE 3 6 30.17 1022 10 16 0.00 0.00
4:54 am 04:54 Cloudy 31 -0.6 25 -3.9 79 79 Calm 30.14 1021 10 16 0.00 0.00
5:05 am 05:05 Cloudy with Light Freezing Rain 32 0 25 -3.9 75 75 Calm 30.14 1021 7 11 0.00 0.00
5:54 am 05:54 Cloudy with Light Freezing Rain 32 0 27 -2.8 82 82 Calm 30.10 1019 10 16 0.00 0.00
6:12 am 06:12 Cloudy 33 0.6 27 -2.8 78 78 Calm 30.09 1019 10 16 0.00 0.00
6:54 am 06:54 Cloudy 33 0.6 28 -2.2 82 82 Calm 30.07 1018 10 16 0.00 0.00
7:23 am 07:23 Cloudy 34 1.1 29 -1.7 82 82 E 3 6 30.04 1017 10 16 0.00 0.00
7:54 am 07:54 Cloudy 34 1.1 29 -1.7 82 82 SSE 3 6 30.05 1018 10 16 0.00 0.00
8:54 am 08:54 Cloudy 36 2.2 30 -1.1 79 79 SSW 7 11 30.04 1017 10 16 0.00 0.00
9:54 am 09:54 Cloudy 37 2.8 32 0 82 82 S 8 13 29.99 1016 10 16 0.00 0.00
10:54 am 10:54 Cloudy 39 3.9 34 1.1 82 82 S 6 9 29.95 1014 10 16 0.00 0.00
11:08 am 11:08 Cloudy 39 3.9 33 0.6 79 79 S 6 9 29.95 1014 10 16 0.00 0.00
11:54 am 11:54 Cloudy 41 5 35 1.7 79 79 S 8 13 29.89 1012 10 16 0.00 0.00
12:37 pm 12:37 Cloudy 45 7.2 35 1.7 68 68 SW 12 19 29.86 1011 10 16 0.00 0.00
12:54 pm 12:54 Cloudy 47 8.3 35 1.7 63 63 SSW 16 26 29.85 1011 10 16 0.00 0.00
1:54 pm 13:54 Cloudy 47 8.3 36 2.2 66 66 SW 13 20 29.81 1010 10 16 0.00 0.00
2:50 pm 14:50 Cloudy 46 8 37 3 71 71 SSW 15 24 29.80 1009 10 16 0.00 0.00
2:54 pm 14:54 Cloudy 47 8.3 37 2.8 69 69 SSW 14 22 29.80 1009 10 16 0.00 0.00
3:31 pm 15:31 Cloudy 47 8.3 38 3.3 71 71 SSW 10 17 29.80 1009 10 16 0.00 0.00
3:54 pm 15:54 Cloudy 46 7.8 38 3.3 73 73 SSW 13 20 29.80 1009 10 16 0.00 0.00
4:54 pm 16:54 Mostly Cloudy 45 7.2 38 3.3 77 77 SSW 9 15 29.77 1008 10 16 0.00 0.00
5:54 pm 17:54 Mostly Cloudy 44 6.7 37 2.8 76 76 SSW 8 13 29.76 1008 10 16 0.00 0.00
6:54 pm 18:54 Mostly Cloudy 43 6.1 38 3.3 82 82 SSW 7 11 29.77 1008 10 16 0.00 0.00
7:54 pm 19:54 Mostly Cloudy 43 6.1 38 3.3 82 82 SW 10 17 29.76 1008 10 16 0.00 0.00
8:54 pm 20:54 Mostly Cloudy 42 5.6 37 2.8 82 82 SW 8 13 29.75 1007 10 16 0.00 0.00
9:54 pm 21:54 Cloudy 42 5.6 38 3.3 85 85 SW 10 17 29.74 1007 10 16 0.00 0.00
10:54 pm 22:54 Cloudy 41 5 37 2.8 86 86 SW 10 17 29.73 1007 10 16 0.00 0.00
11:54 pm 23:54 Cloudy 41 5 36 2.2 82 82 SW 10 17 29.73 1007 10 16 0.00 0.00

Powered by AerisWeather